Location: *
(32.8667°N, 13.1833°E)
Time: 18:31:29
(UTC+00:00)

Cosmos 2219 Rocket - Pass Details

Date: 18 July 2019
Orbit: 829 x 845 km, 71.0° (Epoch: 23 August)

Event Time Altitude Azimuth Distance (km) Brightness Sun altitude
Exits shadow 19:51:38 11° 76° (ENE) 2,378 4.2 -17.8°
Drops below altitude 10° 19:52:12 10° 71° (ENE) 2,465 4.3 -17.8°
Sets 19:56:01 0° 45° (NE) 3,404 5.3 -18.4°
